Find Starlink 30818

NORAD ID: 58217 Int'l Des: 2023-170 Owner: SPXS Country: US Constellation: starlink operational
LEOCIRCULAR

实时位置

正在加载3D地球...

关于 Starlink 30818

正在加载描述...

即将过境

Passes for default location (London). Set your location on the main map for personalized predictions.

高度历史

Loading altitude history...

两行轨道根数

1 58217U 23170M 26120.81882942 .00003101 00000-0 12217-3 0 9990
2 58217 43.0018 259.6809 0001746 281.1045 78.9611 15.27579492138273
Epoch: Apr 30, 2026 • Age: 19 hours

当前状态

高度 483.5 km
速度 7.63 km/s
星下点 26.23°N, 152.5°W
发射日期 Nov 4, 2023
运行时间 2.4 years
类型 internet

技术详情

分类 Payload
质量 730.00 kg
干质量 700.00 kg
总质量 730.00 kg
长度 0.30 m
直径 4.10 m
跨度 29.00 m
形状 Box + pan
制造商 SPXS
平台类型 Starlink V2M
阶段状态 In Orbit
所有者/国家 SPXS/US

Most Searched